[[{"header":{"parameterUnit":"m.s-1","parameterCategory":1,"la1":30.2991,"la2":30.254,"lo1":-89.0895,"lo2":-89.0444,"dy":0.0017,"dx":0.0017,"nx":28,"ny":28,"refTime":"2023-11-13T09:00:00:Z","depth":0,"parameterNumber":2,"parameterNumberName":"U-component_of_WINDS"},"data":[0,0,0,0,0,0,0,0,0,0,0,0,0,0,0,0,0,0,0,0,0,0,0,0,0,0,0,0,0,0,0,0,0,0,0,0,0,0,0,0,0,0,0,0,0,0,0,0,0,0,0,0,0,0,0,0,0,0,-2.7048,-2.7048,0,-2.7118,-2.7119,-2.7119,-2.7079,-2.7077,-2.7075,-2.7073,-2.7146,-2.715,-2.7154,0,0,0,0,0,0,0,0,0,0,0,0,0,-2.6879,-2.6883,-2.7048,-2.7048,-2.7049,-2.7118,-2.7119,-2.712,-2.7079,-2.7077,-2.7074,-2.7072,-2.7145,-2.7149,-2.7154,0,0,0,0,0,0,0,0,0,0,0,0,0,-2.6951,-2.6884,-2.7047,-2.7037,-2.7037,-2.7117,-2.7119,-2.712,-2.708,-2.7077,-2.7074,-2.7071,-2.7143,-2.7149,-2.7155,-2.7249,0,0,-2.7172,-2.7174,0,0,0,0,0,0,0,0,-2.6947,-2.6958,-2.7038,-2.7038,-2.7038,-2.7086,-2.7086,-2.7163,-2.708,-2.7064,-2.7073,-2.7069,-2.7129,-2.7136,-2.7155,-2.7253,-2.7256,-2.7172,-2.7176,-2.7178,-2.718,0,0,0,0,0,0,0,-2.6942,-2.6954,-2.7075,-2.7039,-2.7039,-2.703,-2.7037,-2.7101,-2.7112,-2.7065,-2.7062,-2.7071,-2.7128,-2.715,-2.7157,-2.7257,-2.7172,-2.7177,-2.7181,-2.7183,-2.7436,-2.7439,0,0,0,0,0,0,-2.6938,-2.695,-2.7073,-2.7077,-2.6984,-2.7035,-2.7043,-2.7074,-2.7111,-2.7114,-2.7073,-2.7069,-2.7142,-2.715,-2.7159,-2.7273,-2.7178,-2.7184,-2.7187,-2.7433,-2.7437,-2.744,0,0,0,0,0,0,-2.6935,-2.6949,-2.707,-2.7013,-2.7028,-2.7041,-2.7076,-2.7077,-2.7098,-2.7118,-2.712,-2.7093,-2.714,-2.7151,-2.7227,-2.7275,-2.7186,-2.7191,-2.7429,-2.7434,-2.7439,-2.7502,0,0,0,0,0,0,-2.693,-2.6948,-2.6984,-2.7014,-2.7031,-2.7137,-2.7079,-2.708,-2.7108,-2.7103,-2.7137,-2.714,-2.7138,-2.7219,-2.7233,-2.7282,-2.7196,-2.7425,-2.7431,-2.7437,-2.7496,-2.7509,-2.752,0,0,0,0,0,-2.6924,-2.7,-2.6986,-2.7001,-2.7076,-2.714,-2.715,-2.7146,-2.7112,-2.7149,-2.7161,-2.7139,-2.7267,-2.7227,-2.7242,-2.7294,-2.7422,-2.7429,-2.7437,-2.7491,-2.7506,-2.7519,0,0,0,0,0,0,-2.6975,-2.7003,-2.6989,-2.7076,-2.7106,-2.7133,-2.7179,-2.7163,-2.7203,-2.7196,-2.719,-2.7198,-2.7278,-2.7293,-2.7248,-2.7387,-2.7339,-2.735,-2.7375,-2.739,-2.7402,-2.7397,-2.7201,0,0,0,0,0,-2.6997,-2.7046,-2.7068,-2.7143,-2.7158,-2.7166,-2.7194,-2.7188,-2.7219,-2.7232,-2.7249,-2.728,-2.7328,-2.7359,-2.7404,-2.7497,-2.7505,-2.754,-2.7552,-2.7561,-2.7571,-2.7623,-2.7639,-2.7465,-2.7465,-2.7465,0,0,-2.7042,-2.7063,-2.7094,-2.7153,-2.7176,-2.7228,-2.7177,-2.7234,-2.7272,-2.724,-2.7314,-2.7328,-2.7362,-2.7447,-2.7486,-2.7462,-2.7621,-2.7571,-2.7578,-2.7583,-2.7632,-2.7649,-2.7663,-2.747,-2.7469,-2.7468,0,0,-2.715,-2.7171,-2.7236,-2.7259,-2.7294,-2.7298,-2.7314,-2.7344,-2.7352,-2.7425,-2.7402,-2.7448,-2.7529,-2.7555,-2.7579,-2.7696,-2.7678,-2.7711,-2.7774,-2.7824,-2.7838,-2.785,-2.7893,-2.7909,-2.772,-2.7721,-2.7721,0,-2.7202,-2.7279,-2.7272,-2.733,-2.7357,-2.733,-2.7396,-2.7419,-2.7467,-2.7486,-2.7459,-2.7561,-2.7582,-2.7673,-2.7702,-2.7722,-2.774,-2.7708,-2.7836,-2.7848,-2.7859,-2.7901,-2.7917,-2.7724,-2.7724,-2.7724,-2.7723,0,-2.7342,-2.7395,-2.7443,-2.749,-2.7522,-2.7584,-2.7587,-2.762,-2.7612,-2.7619,-2.7694,-2.7718,-2.7768,-2.7789,-2.7781,-2.7879,-2.7864,-2.7836,-2.7788,-2.788,-2.7919,-2.7935,-2.773,-2.7729,-2.7728,-2.7727,0,0,-2.7486,-2.7527,-2.7546,-2.7566,-2.7602,-2.7643,-2.7704,-2.7752,-2.7781,-2.7814,-2.7866,-2.7935,-2.791,-2.7937,-2.7932,-2.7975,-2.8069,-2.7943,-2.7943,-2.7967,-2.818,-2.8202,-2.8221,-2.8056,-2.8059,-2.8061,-2.8178,0,-2.7599,-2.7705,-2.77,-2.78,-2.785,-2.7824,-2.7877,-2.7905,-2.7913,-2.7957,-2.7966,-2.8016,-2.7978,-2.7995,-2.8036,-2.8049,-2.8112,-2.804,-2.8105,-2.8107,-2.8099,-2.8241,-2.8264,-2.8373,-2.8193,-2.8195,-2.8197,0,-2.7744,-2.7783,-2.7887,-2.7916,-2.7936,-2.7984,-2.8028,-2.8069,-2.81,-2.8103,-2.8133,-2.8121,-2.8183,-2.8131,-2.8218,-2.8169,-2.8195,-2.8205,-2.8209,-2.8216,-2.816,-2.8254,-2.8408,-2.8425,-2.8221,-2.8219,-2.8217,0,-2.7842,-2.7919,-2.7992,-2.801,-2.8045,-2.8079,-2.8095,-2.8123,-2.8152,-2.819,-2.8209,-2.8254,-2.8279,-2.8314,-2.8314,-2.8276,-2.8402,-2.835,-2.8407,-2.8407,-2.8436,-2.8435,-2.8599,-2.845,-2.845,-2.8449,-2.8449,0,-2.7969,-2.8035,-2.8036,-2.8081,-2.8154,-2.8147,-2.822,-2.8232,-2.8257,-2.8304,-2.8284,-2.8329,-2.8325,-2.8371,-2.8371,-2.8443,-2.8454,-2.8459,-2.8459,-2.8462,-2.8462,-2.8481,-2.8474,-2.8454,-2.8453,-2.8452,-2.8451,0,-2.8091,-2.8095,-2.8173,-2.8198,-2.8206,-2.8259,-2.8281,-2.8324,-2.833,-2.8391,-2.8404,-2.8414,-2.8467,-2.847,-2.853,-2.853,-2.8619,-2.8609,-2.8608,-2.8607,-2.8665,-2.866,-2.8848,-2.8873,-2.8706,-2.8708,-2.8709,0,-2.8173,-2.8223,-2.8254,-2.8284,-2.8302,-2.8351,-2.838,-2.8375,-2.8407,-2.8446,-2.8485,-2.8535,-2.8575,-2.866,-2.8673,-2.872,-2.8712,-2.8775,-2.8719,-2.8721,-2.8715,-2.8713,-2.8719,-2.8786,-2.8788,-2.879,-2.8791,0,-2.8319,-2.8318,-2.8361,-2.8406,-2.8441,-2.8476,-2.8508,-2.8534,-2.8532,-2.8569,-2.8622,-2.8653,-2.8715,-2.8766,-2.8811,-2.8827,-2.881,-2.8808,-2.8824,-2.8829,-2.8828,-2.8831,-2.864,-2.8804,-2.8803,-2.8802,-2.8801,-2.8801,-2.8425,-2.8469,-2.8497,-2.8546,-2.8569,-2.86,-2.8642,-2.8653,-2.8697,-2.8747,-2.8741,-2.88,-2.883,-2.8888,-2.8908,-2.8955,-2.8934,-2.8957,-2.8963,-2.8969,-2.8976,-2.8818,-2.8963,-2.8963,-2.8962,-2.8962,-2.8962,0,-2.8572,-2.8589,-2.8633,-2.8679,-2.8717,-2.8696,-2.873,-2.8764,-2.8816,-2.8845,-2.8885,-2.8946,-2.8995,-2.9012,-2.9059,-2.9094,-2.9087,-2.9107,-2.9105,-2.911,-2.8992,-2.8974,-2.9111,-2.9111,-2.9111,-2.9111,-2.9111,-2.9111,-2.8653,-2.8725,-2.8728,-2.8812,-2.8828,-2.8886,-2.8908,-2.8936,-2.8959,-2.9028,-2.9069,-2.9078,-2.9102,-2.9151,-2.9196,-2.9199,-2.9219,-2.9242,-2.9243,-2.9133,-2.9118,-2.9103,-2.9087,-2.9246,-2.9246,-2.9357,-2.9358,-2.9359]},{"header":{"parameterUnit":"m.s-1","parameterCategory":1,"la1":30.2991,"la2":30.254,"lo1":-89.0895,"lo2":-89.0444,"dy":0.0017,"dx":0.0017,"nx":28,"ny":28,"refTime":"2023-11-13T09:00:00:Z","depth":0,"parameterNumber":3,"parameterNumberName":"V-component_of_WINDS"},"data":[0,0,0,0,0,0,0,0,0,0,0,0,0,0,0,0,0,0,0,0,0,0,0,0,0,0,0,0,0,0,0,0,0,0,0,0,0,0,0,0,0,0,0,0,0,0,0,0,0,0,0,0,0,0,0,0,0,0,-4.1196,-4.1196,0,-4.1196,-4.1196,-4.1196,-4.1143,-4.1141,-4.114,-4.1139,-4.1138,-4.114,-4.1141,0,0,0,0,0,0,0,0,0,0,0,0,0,-4.1149,-4.115,-4.1196,-4.1196,-4.1196,-4.1196,-4.1196,-4.1196,-4.1143,-4.1141,-4.114,-4.1138,-4.1138,-4.1139,-4.1141,0,0,0,0,0,0,0,0,0,0,0,0,0,-4.1161,-4.115,-4.1196,-4.1169,-4.1167,-4.1196,-4.1196,-4.1196,-4.1143,-4.1141,-4.1139,-4.1137,-4.1137,-4.1139,-4.1141,-4.1195,0,0,-4.1147,-4.1148,0,0,0,0,0,0,0,0,-4.1161,-4.1163,-4.1173,-4.1171,-4.1169,-4.1167,-4.1179,-4.1196,-4.1144,-4.1152,-4.1139,-4.1136,-4.115,-4.115,-4.1155,-4.1195,-4.1195,-4.1147,-4.1149,-4.1149,-4.115,0,0,0,0,0,0,0,-4.116,-4.1163,-4.1196,-4.1173,-4.1171,-4.1157,-4.1157,-4.1182,-4.1163,-4.1151,-4.1148,-4.1148,-4.1148,-4.1153,-4.1155,-4.1195,-4.1147,-4.1149,-4.115,-4.1151,-4.128,-4.1282,0,0,0,0,0,0,-4.1163,-4.1162,-4.1196,-4.1196,-4.1159,-4.116,-4.1159,-4.117,-4.1162,-4.1159,-4.115,-4.1146,-4.1151,-4.1152,-4.1154,-4.1217,-4.1149,-4.1151,-4.1152,-4.1278,-4.128,-4.1283,0,0,0,0,0,0,-4.1162,-4.1166,-4.1196,-4.1178,-4.1181,-4.1163,-4.1175,-4.1171,-4.1176,-4.1161,-4.1158,-4.1159,-4.1149,-4.1152,-4.1186,-4.1217,-4.1152,-4.1154,-4.1275,-4.1278,-4.1281,-4.1344,0,0,0,0,0,0,-4.1161,-4.1166,-4.1187,-4.1179,-4.1182,-4.1227,-4.1177,-4.1172,-4.118,-4.1174,-4.1169,-4.1166,-4.1148,-4.1183,-4.1188,-4.1218,-4.1155,-4.1272,-4.1276,-4.128,-4.1339,-4.1349,-4.1358,0,0,0,0,0,-4.1159,-4.1204,-4.1188,-4.1192,-4.1207,-4.1229,-4.1231,-4.1209,-4.1182,-4.1203,-4.1193,-4.1166,-4.1212,-4.1187,-4.1192,-4.1223,-4.127,-4.1275,-4.128,-4.1335,-4.1347,-4.1357,0,0,0,0,0,0,-4.1216,-4.1203,-4.1185,-4.1228,-4.123,-4.122,-4.1245,-4.1223,-4.1232,-4.1227,-4.1199,-4.1199,-4.1237,-4.1233,-4.1205,-4.1275,-4.1236,-4.1243,-4.1276,-4.1288,-4.1297,-4.1297,-4.1157,0,0,0,0,0,-4.1234,-4.1253,-4.124,-4.128,-4.1282,-4.1264,-4.1272,-4.1255,-4.1256,-4.1257,-4.125,-4.1251,-4.1266,-4.1277,-4.1289,-4.1338,-4.1336,-4.1362,-4.1371,-4.1379,-4.1385,-4.1411,-4.1422,-4.1299,-4.1299,-4.1299,0,0,-4.127,-4.1265,-4.1279,-4.1291,-4.1291,-4.1311,-4.1265,-4.1288,-4.1303,-4.126,-4.1292,-4.1287,-4.1287,-4.1328,-4.1346,-4.1327,-4.1418,-4.1385,-4.1392,-4.1393,-4.1417,-4.1429,-4.1439,-4.1303,-4.1302,-4.1302,0,0,-4.1348,-4.1346,-4.1379,-4.138,-4.1379,-4.1367,-4.1375,-4.1368,-4.1363,-4.1394,-4.1363,-4.138,-4.1406,-4.1408,-4.1412,-4.1489,-4.1465,-4.1494,-4.1543,-4.1568,-4.1578,-4.1586,-4.1615,-4.1625,-4.15,-4.15,-4.15,0,-4.1394,-4.1423,-4.1399,-4.1425,-4.1431,-4.1393,-4.1426,-4.1428,-4.1432,-4.1437,-4.1415,-4.1447,-4.1444,-4.1486,-4.1505,-4.1509,-4.1517,-4.1495,-4.1578,-4.1587,-4.1594,-4.1621,-4.1631,-4.1504,-4.1503,-4.1503,-4.1503,0,-4.148,-4.15,-4.1527,-4.1532,-4.1541,-4.1571,-4.1551,-4.1563,-4.1545,-4.1535,-4.1567,-4.1563,-4.1574,-4.1582,-4.1565,-4.1622,-4.1609,-4.1583,-4.1544,-4.161,-4.1635,-4.1644,-4.1509,-4.1508,-4.1507,-4.1506,0,0,-4.1594,-4.1585,-4.1595,-4.1597,-4.1594,-4.1609,-4.1637,-4.1648,-4.1659,-4.1663,-4.1685,-4.1708,-4.1684,-4.1689,-4.1671,-4.1693,-4.1756,-4.1664,-4.1664,-4.1682,-4.1818,-4.1838,-4.1851,-4.1739,-4.1741,-4.1742,-4.1818,0,-4.1669,-4.1716,-4.1695,-4.1744,-4.1763,-4.1727,-4.1751,-4.1752,-4.1743,-4.1758,-4.1747,-4.1764,-4.1731,-4.1733,-4.1754,-4.1744,-4.1783,-4.1738,-4.176,-4.1761,-4.1762,-4.1863,-4.1885,-4.1956,-4.1828,-4.1829,-4.183,0,-4.1764,-4.1772,-4.1823,-4.1816,-4.1824,-4.1846,-4.1854,-4.1868,-4.1868,-4.186,-4.1866,-4.1843,-4.1869,-4.183,-4.1866,-4.1836,-4.1843,-4.184,-4.1842,-4.1844,-4.18,-4.1868,-4.1979,-4.199,-4.1845,-4.1844,-4.1843,0,-4.1843,-4.1866,-4.19,-4.1902,-4.1895,-4.1912,-4.1909,-4.1907,-4.1915,-4.1922,-4.1927,-4.1938,-4.1944,-4.1952,-4.1933,-4.1906,-4.1972,-4.193,-4.1966,-4.1967,-4.1982,-4.1982,-4.2096,-4.1986,-4.1986,-4.1986,-4.1986,0,-4.193,-4.1963,-4.1935,-4.1956,-4.1992,-4.1967,-4.2003,-4.1996,-4.1995,-4.2013,-4.1983,-4.2001,-4.1974,-4.199,-4.1975,-4.2007,-4.201,-4.2004,-4.2,-4.2008,-4.2008,-4.2013,-4.2008,-4.1989,-4.1988,-4.1987,-4.1987,0,-4.2025,-4.2007,-4.2042,-4.2032,-4.203,-4.2057,-4.2049,-4.2068,-4.2056,-4.2081,-4.2085,-4.2067,-4.2084,-4.2065,-4.2081,-4.2071,-4.2115,-4.2103,-4.2115,-4.2112,-4.2149,-4.2146,-4.2271,-4.2286,-4.2166,-4.2167,-4.2168,0,-4.2082,-4.2106,-4.2099,-4.211,-4.2109,-4.2127,-4.2135,-4.2111,-4.212,-4.2122,-4.214,-4.2155,-4.2165,-4.2193,-4.2182,-4.2194,-4.2182,-4.2225,-4.2184,-4.219,-4.2183,-4.2183,-4.2185,-4.2234,-4.2235,-4.2236,-4.2237,0,-4.2185,-4.2175,-4.2188,-4.2198,-4.2209,-4.2216,-4.222,-4.223,-4.2205,-4.2217,-4.2234,-4.2242,-4.2258,-4.2273,-4.2281,-4.2278,-4.2254,-4.225,-4.2259,-4.2268,-4.2274,-4.2272,-4.2139,-4.2248,-4.2247,-4.2246,-4.2245,-4.2245,-4.2263,-4.2283,-4.2282,-4.2297,-4.2298,-4.2302,-4.2319,-4.231,-4.2324,-4.2335,-4.232,-4.2341,-4.234,-4.2348,-4.2348,-4.2365,-4.2346,-4.2359,-4.2363,-4.2366,-4.2372,-4.2271,-4.2366,-4.2366,-4.2365,-4.2365,-4.2365,0,-4.2366,-4.2363,-4.2377,-4.2384,-4.2396,-4.2372,-4.2375,-4.2387,-4.2406,-4.2407,-4.2417,-4.2437,-4.2451,-4.244,-4.2452,-4.2467,-4.2456,-4.2471,-4.247,-4.247,-4.2388,-4.2379,-4.2479,-4.2479,-4.2479,-4.2479,-4.2479,-4.2479,-4.2421,-4.2453,-4.2443,-4.2476,-4.2472,-4.2493,-4.2497,-4.2501,-4.2502,-4.2525,-4.2536,-4.2529,-4.2526,-4.2537,-4.2549,-4.2545,-4.2551,-4.257,-4.2563,-4.2487,-4.2475,-4.2465,-4.2457,-4.2572,-4.2572,-4.2644,-4.2644,-4.2645]}]]